www.pogodaiklimat.ru

Погода и климат >> Архив погоды >> Россия >> Сахалинская область >> Курильск


АРХИВ ПОГОДЫ в Курильске

Время (UTC), дата Ветер
(напр.,м/с)
 
Видим.   Явления Облачность Т
(С)
Тd
(С)
f
(%)
Тe
(С)
Тes
(С)
Комфортность P
(гПа)
Po
(гПа)
Тmin
(С)
Tmax
(С)
R
(мм)
R24
(мм)
S
(см)
21 15.08 В 4-7
{7}
20 км 10/0
[Ac und]
+15.4 +12.2 81 +14 +15 1011.4 1008.0 +13.4
00 16.08 В 5-9
{10}
20 км 10/0
[Ac und]
+14.4 +12.4 88 +13 +13 1012.6 1009.3
03 16.08 В 4-6
{10}
20 км 10/0
[Ac und]
+15.7 +12.4 81 +15 +18 1010.5 1007.2
06 16.08 В 1-10
{10}
20 км {дождь} 10/0
[Ac und]
+14.6 +12.1 85 +15 +15 1010.0 1006.7
09 16.08 В 4-9
{11}
10 км слаб. дождь 10/10 300 м
[Frnb Ns]
+12.0 +11.8 99 +10 +10 1009.7 1006.2 +17.5 4
12 16.08 В 1-3
{10}
10 км слаб. дождь 10/10 300 м
[Frnb Ns]
+13.3 +12.2 93 +13 +13 1008.6 1005.3
15 16.08 В 1-4
{10}
10 км слаб. дождь 10/10 300 м
[Frnb Ns]
+13.0 +12.6 97 +13 +13 1006.5 1003.1
18 16.08 В 4-7
{13}
н/о {дождь} н/о +13.2 +12.6 96 +11 +11 1006.0 1002.7
21 16.08 В 6-8
{11}
10 км слаб. дождь 10/10 300 м
[Frnb Ns]
+12.8 +12.2 96 +10 +10 1003.0 999.6 +12.0 19
00 17.08 В 8-11
{14}
10 км слаб. дождь 10/10 300 м
[Frnb Ns]
+13.7 +13.4 98 +11 +11 1002.0 998.7 +12.6
03 17.08 В 9-15
{18}
10 км слаб. морось {дождь} 10/10 300 м
[]
+14.6 +14.3 98 +12 +12 1000.2 996.9
06 17.08 В 8-13
{18}
10 км слаб. морось {дождь} 10/10 300 м
[St]
+15.3 +15.1 99 +13 +13 1000.6 997.3
09 17.08 В 9-14
{14}
4000 м морось {дождь} 10/10 300 м
[St]
+15.4 +14.7 96 +13 +13 999.3 995.9 3
12 17.08 В 6-12
{14}
10 км слаб. морось {дождь} 10/10 300 м
[St]
+15.5 +15.3 99 +14 +14 1002.0 998.7
15 17.08 В 4-7
{12}
10 км слаб. морось 10/10 300 м
[St]
+15.5 +15.5 100 +14 +14 1001.3 997.9
18 17.08 штиль 0
{6}
н/о н/о +14.4 +14.4 100 +14 +14 1004.6 1001.3
21 17.08 В 3-6
{8}
4000 м слаб. морось 10/10 300 м
[St]
+14.3 +14.2 99 +13 +13 1005.0 1001.6 +14.3
00 18.08 В 3-5
{7}
20 км {морось} 10/4 300 м
[St As trans]
+14.5 +14.3 99 +13 +13 1008.6 1005.3 +14.1
03 18.08 В 2-4
{8}
20 км 10/4 600 м
[Sc As trans]
+14.2 +13.6 96 +14 +17 1008.8 1005.4
06 18.08 В 3-5
{8}
20 км 10/6 600 м
[Sc Ac As]
+13.9 +12.5 91 +13 +13 1010.0 1006.7
09 18.08 В 4-6
{10}
20 км 10/5 600 м
[Sc Ac As]
+11.0 +9.6 91 +9 +9 1011.8 1008.3 +15.0 0.0
12 18.08 В 4-7
{9}
20 км 10/5 600 м
[Sc Ac und]
+11.4 +9.7 89 +9 +9 1015.4 1012.0
15 18.08 В 4-6
{9}
20 км 10/4 600 м
[Sc Ac und]
+11.0 +9.7 92 +8 +8 1015.1 1011.6
18 18.08 СВ 2-4
{6}
20 км 6/0
[Ac trans]
+8.8 +8.3 97 +7 +7 1016.7 1013.3
21 18.08 В 6-9
{12}
20 км 8/0
[Ac trans]
+10.3 +9.1 92 +7 +7 1017.6 1014.1 +8.7
00 19.08 В 6-8
{12}
20 км 1/0
[Ci fib]
+12.9 +9.7 81 +10 +15 1019.4 1016.0
03 19.08 В 6-9
{11}
20 км 1/1 600 м
[Cu hum]
+14.5 +10.4 76 +13 +18 1019.0 1015.6
06 19.08 В 6-10
{13}
20 км ясно +14.8 +8.1 64 +13 +15 1019.4 1016.0
09 19.08 В 4-7
{10}
20 км ясно +11.4 +8.4 82 +9 +9 1020.7 1017.3 +15.8
12 19.08 В 3-6
{8}
20 км ясно +9.5 +8.3 92 +7 +7 1022.1 1018.7
15 19.08 В 5-7
{9}
20 км ясно +9.9 +8.7 92 +7 +7 1020.7 1017.3
18 19.08 В 5-6
{9}
20 км 10/3 600 м
[Sc Ac As]
+9.9 +8.7 92 +7 +7 1020.7 1017.3
21 19.08 В 5-7
{9}
20 км 10/8 600 м
[Cb calv As op]
+10.2 +9.0 92 +7 +7 1019.6 1016.1 +9.3
00 20.08 В 5-8
{9}
20 км 10/10 300 м
[Sc]
+11.8 +9.0 83 +9 +9 1020.7 1017.3
03 20.08 В 4-7
{9}
20 км 10/3 600 м
[Sc Cs]
+14.3 +9.8 74 +13 +19 1017.7 1014.3
06 20.08 В 3-5
{8}
20 км 10/10 600 м
[Sc]
+13.4 +10.2 81 +12 +12 1018.1 1014.7
09 20.08 В 3-5
{8}
20 км 10/6 600 м
[Sc Ac und]
+10.8 +9.0 89 +9 +9 1017.1 1013.7 +14.5
12 20.08 В 4-6
{8}
20 км 10/6 600 м
[Sc Ac und]
+9.4 +8.9 97 +6 +6 1018.1 1014.7
15 20.08 СВ 1-6
{9}
20 км 8/4 600 м
[Sc Ac trans]
+9.5 +8.7 95 +9 +9 1016.5 1013.0
18 20.08 штиль 0
{7}
20 км 10/8 600 м
[Sc Ac und]
+9.1 +8.0 93 +8 +8 1016.7 1013.3
21 20.08 В 1-3
{7}
20 км 8/4 600 м
[Sc Ac trans]
+10.7 +9.4 92 +10 +11 1017.1 1013.6 +8.5
00 21.08 В 5-7
{9}
20 км 8/3 600 м
[Cu Sc Ac trans]
+14.7 +10.3 75 +13 +15 1018.1 1014.7
03 21.08 В 6-7
{10}
20 км 9/3 600 м
[Sc Ac trans]
+15.9 +10.3 69 +15 +17 1016.7 1013.3
06 21.08 В 2-4
{7}
20 км 9/9 600 м
[Sc]
+15.2 +11.6 79 +15 +16 1018.1 1014.7
09 21.08 В 3-6
{8}
20 км 9/4 600 м
[Sc Ac trans Ci fib]
+12.7 +10.2 85 +11 +11 1017.3 1013.9 +16.5
12 21.08 В 2-3
{7}
20 км 8/0
[Ac trans]
+11.6 +9.3 86 +10 +10 1018.1 1014.7
15 21.08 штиль 0
{8}
20 км 10/0
[Ac As]
+11.8 +10.0 89 +11 +11 1018.1 1014.7
18 21.08 В 1-2
{5}
20 км 10/0
[Ac As]
+11.7 +10.3 91 +11 +11 1018.1 1014.7
21 21.08 В 2-4
{7}
10 км 10/8 600 м
[Sc Ac As]
+11.8 +10.2 90 +11 +11 1018.5 1015.0 +11.6
00 22.08 В 3-4
{6}
10 км 10/10 300 м
[Sc]
+12.0 +10.6 91 +10 +10 1019.4 1016.0
03 22.08 В 3-5
{6}
10 км 10/10 300 м
[Sc]
+13.5 +11.3 87 +12 +12 1018.3 1014.9
06 22.08 В 2-3
{5}
10 км 10/10 600 м
[Sc]
+13.7 +10.9 83 +13 +13 1019.4 1016.0
09 22.08 В 3-5
{6}
10 км 8/3 600 м
[Sc Ac trans]
+10.9 +9.4 90 +9 +9 1018.2 1014.7
12 22.08 В 3 20 км 9 баллов +9.1 +8.5 96 +6 +6 1019.4 1016.0
15 22.08 В 1-5
{7}
20 км 10/10 600 м
[Sc]
+9.5 +8.2 92 +9 +9 1018.5 1015.0
18 22.08 В 3 20 км 2 балла +9.0 +7.8 92 +6 +6 1019.4 1016.0

 

Местоположение метеостанции Курильск (Сахалинская область, Россия): широта 45.25 долгота 147.80 высота над уровнем моря 28 м.

В архиве по умолчанию представлена погода в Курильске за последнюю неделю. Архивные данные за месяц целиком и за предыдущие месяцы, начиная с января 2011 года, Вы можете получить, выбрав интересующий диапазон дат из раскрывающегося списка и нажав кнопку "Ввод!".


*Определитесь, кто Вы:
робот инопланетянин человек

Внимание! Время в таблицах - всемирное. Для получения местного времени необходимо прибавить поправку, которая равна 11 ч.

Смотрите также архив погоды в соседних городах и на ближайших метеорологических станциях:

Погода в Малокурильском (Сахалинская область, Россия) (172 км)
Погода в Южно-Курильске (Сахалинская область, Россия) (209 км)
Погода в Немуро (Япония) (277 км)
Погода в Абасири (Япония) (310 км)
Погода в Момбецу (Япония) (365 км)
Погода в Новиково (Сахалинская область, Россия) (371 км)
Погода в Кусиро (Япония) (372 км)
Погода в Мальково (Сахалинская область, Россия) (387 км)
Погода в Омурайсу (Япония) (388 км)
Погода в Китами Сачи (Япония) (411 км)

Пояснения к столбцам:

Ветер - указаны скорость ветра в м/с - средняя за 10 мин, порывы в срок и между сроками (в фигурных скобках) и направление, откуда дует ветер: С - северный, СВ - северо-восточный, В - восточный, ЮВ - юго-восточный, Ю - южный, ЮЗ - юго-западный, З - западный, СЗ - северо-западный.
Видимость - горизонтальная дальность видимости в метрах или километрах. При видимости от 1 до 10 км при отсутствии осадков обычно наблюдается дымка, при ухудшении видимости до 1 км и менее - туман. В сухую погоду видимость может ухудшаться дымом, пылью или мглою.
Явления - указаны атмосферные явления, наблюдавшиеся в срок или в последний час перед сроком; фигурными скобками обозначены явления, наблюдавшиеся между сроками (за 1-3 часа до срока); квадратными скобками обозначены град или гололедные отложения с указанием их диаметра в мм.
Облачность - указаны через наклонную черту общая и нижняя облачность в баллах и высота нижней границы облаков в метрах; квадратными скобками обозначены формы облаков: Ci - перистые, Cs - перисто-слоистые, Cc - перисто-кучевые, Ac - высококучевые, As - высокослоистые, Sc - слоисто-кучевые, Ns - слоисто-дождевые, Cu - кучевые, Cb - кучево-дождевые. Подробнее классификацию облаков см. в Атласе облаков (PDF).
T - Температура воздуха - температура, измеренная на высоте 2 м над землей.
Td - Температура точки росы - температура, при понижении до которой содержащийся в воздухе водяной пар достигнет насыщения.
f - Относительная влажность воздуха - влажноcть воздуха, измеренная на высоте 2 м над землей.
Te - Эффективная температура - температура, которую ощущает одетый по сезону человек в тени. Характеристика душности погоды. При расчете учитывается влияние влажности воздуха и скорости ветра на теплоощущения человека.
Tes - Эффективная температура на солнце - температура, которую ощущает человек, с поправкой на солнечный нагрев. Характеристика знойности погоды. Зависит от высоты солнца над горизонтом, облачности и скорости ветра. Ночью, в пасмурную погоду, а также при ветре 12 м/с и более поправка равна нулю.
P - Атмосферное давление - приведенное к уровню моря атмосферное давление.
Po - Атмосферное давление - измеренное на уровне метеостанции атмосферное давление.
Tmin - Минимальная температура - минимум температуры воздуха на высоте 2 м над землей.
Tmax - Максимальная температура - максимум температуры воздуха на высоте 2 м над землей.
R - Количество осадков - Количество выпавших осадков за период времени, мм. При наведении курсора мыши на число - период времени, за который выпало указанное количество осадков.
R24 - Количество осадков - Количество выпавших осадков за 24 часа, мм.
S - Снежный покров - Высота снежного покрова, см. При наведении курсора мыши на число - состояние снежного покрова и степень покрытия местности в баллах.